Weather in Kondrakovo

Russia / Vladimir Oblast     55°47′57″N   41°54′30″E
temp.,
°C
wind,
m/s
gust,
m/s
humid.,
%
clouds,
%
prec.,
mm/h
press.,
hPa
HPBL,
m
3 march, wed
wed300:00−2nw4119493 0.1 1006434
03:00−5nw5119178 0.1 1008403
06:00−7nw5129279 0.0 1009420
09:00−7nw6119088 0.0 1011488
12:00−4nw6108692 0.0 1012772
15:00−2wnw598295 0.1 1011989
18:00−3w41090100 0.1 1010474
21:00−3wsw5129292 0.1 1009466
4 march, thu
thu400:00−2wsw51195100 0.2 1005589
03:00−2wsw71393100 0.3 1003684
06:00−1wsw71496100 0.6 999748
09:00+1w81598100 1.4 997923
12:000wnw71388100 0.6 9971235
15:000wnw6117697 0.6 9991030
18:00−3wnw4987100 0.0 999296
21:00−6wnw2391100 0.0 100070
5 march, fri
fri500:00−6nw2393100 0.0 100087
03:00−7nnw2496100 0.0 100199
06:00−10n339591 0.1 100357
09:00−9nnw239457 0.1 1005140
12:00−5wnw228247 0.0 1006489
15:00−3wsw247769 0.0 1007801
18:00−6wsw239497 0.1 100824
21:00−5nnw239798 1.6 1010116
6 march, sat
sat600:00−9wnw4894100 0.4 1011183
03:00−12wnw359456 0.4 1012100
06:00−13wnw349621 0.0 101353
09:00−11nw369355 0.1 1014334
12:00−10nnw458399 0.0 1015795
15:00−9nw457799 0.1 10151030
18:00−13wnw368894 0.0 1014159
21:00−15w339350 0.0 101541
7 march, sun
sun700:00−14wsw369476 0.1 1013138
03:00−15sw489257 0.1 1011151
06:00−12ssw6138950 0.0 1007395
09:00−9ssw8149075 0.1 1003892
12:00−6ssw91591100 0.6 9981185
15:00−4sw91491100 1.9 9941096
18:00−7nw41091100 2.4 992546
21:00−11w348880 2.5 99351